Погода Жосалы

Погода Жосалы : погода сейчас, прогноз погоды и архив. Всё, что Вы хотите узнать о погоде Жосалы!

Хотите узнать прогноз погоды Жосалы? Тогда Вам сюда: Погода Жосалы

Поиск расширенной информации на нашем сайте:

Другие новости

Новости СМИ2

Главная страница сайта

Новости сайта

03.07.2017

Напоминаем, что на нашем специализированном сайте Метеоцентр.Азия вы можете получить высокодетализированные автоматические прогнозы погоды по пунктам России, СНГ и мира в авиационном формате (включающие направление и скорость ветра, видимость, явления погоды, количество и форму облачности, нижнюю и верхнюю границу облачности).

Рекомендуем: http://vdsperm.ru/ где купить проволока в пермь.

Погода Жосалы - сегодня

Время (UTC), дата Ветер
(°,м/с) 
Видим.   Явления Облачность Т
(°С)
Тd
(°С)
f(%) Тe
(°С)
Pmin
(гПа)
dP
(гПа)
Po
(мм)
O2
(г/м3)
Тmin Tmax R s Состояние
почвы
15 19.07.17 020 (С) 20000 м    3/3 1000 м 
[Cu med, cong]
+32.6 +8.2 22 +33  1013.8  -0.5  752  269    +34.9       
18 19.07.17 050 (СВ) н/о    ясно 
+26.8 +8.1 31 +27  1014.9  0.8  752  275    +34.9       
21 19.07.17 020 (С) н/о    ясно 
+23.6 +6.8 34 +24  1014.8  -0.2  752  278           
00 20.07.17 360 (С) 20000 м    ясно 
+21.5 +5.8 36 +22  1014.5  -0.4  752  280           
03 20.07.17 050 (СВ) 20000 м    ясно 
+26.6 +6.1 27 +27  1014.8  0.5  751  275           
06 20.07.17 050 (СВ) 20000 м    3/0 верхняя 
[Ci]
+31.8 +6.8 21 +32  1015  0.4  753  271  +21.1         
09 20.07.17 050 (СВ) 20000 м    4/0 верхняя 
[Ci fib]
+33.8 +3.4 15 +34  1014.1  -0.8  752  269           
12 20.07.17 020 (С) 20000 м    4/0 верхняя 
[Ci fib]
+34.5 +3.2 14 +35  1013.2  -0.8  751  268           
15 20.07.17 050 (СВ) 20000 м    3/0 верхняя 
[Ci sp]
+33.2 +6.4 19 +33  1011.9  -1.3  750  269    +36       
18 20.07.17 050 (СВ) н/о    ясно 
+27.4 +7.1 28 +27  1012.9  0.7  751  274    +36       
21 20.07.17 050 (СВ) н/о    ясно 
+25.9 +7.3 31 +26  1012.6  -0.4  751  275           
00 21.07.17 050 (СВ) 20000 м    ясно 
+23.8 +8 36 +24  1012.8  0.2  751  277           
03 21.07.17 050 (СВ) 20000 м    3/0 верхняя 
[Ci sp]
+25.7 +6.8 30 +26  1013.7  0.9  751  276           
06 21.07.17 090 (В) 20000 м    3/0 верхняя 
[Ci sp]
+32.8 +6.2 19 +33  1014.3  0.8  752  270  +22.4         
09 21.07.17 020 (С) 20000 м    3/3 1000 м 
[Cu hum]
+36 +4.8 14 +36  1013.3  -0.8  751  267           
12 21.07.17 020 (С) 20000 м    3/3 1000 м 
[Cu hum]
+37.4 +4.3 13 +37  1011.8  -1.4  750  265           
15 21.07.17 050 (СВ) 20000 м    6/3 1000 м средняя, верхняя 
[Cu hum|Ac lent|Ci]
+36 +6.2 16 +36  1011.6  -0.3  750  266    +38.5       
18 21.07.17 070 (В) н/о    4/0 средняя, верхняя 
[Ac lent|Ci]
+28.9 +10.2 31 +30  1012.3  0.5  751  272    +38.5       
21 21.07.17 тихо ()   н/о    3/0 верхняя 
[Ci]
+26 +7.7 31 +26  1012.5  751  275           
00 22.07.17 320 (СЗ) 20000 м    3/0 верхняя 
[Ci]
+23.7 +8.1 37 +24  1012.8  0.3  751  277           
03 22.07.17 тихо ()   20000 м    3/0 верхняя 
[Ci]
+29.9 +11 31 +32  1013.1  0.5  752  271           
06 22.07.17 050 (СВ) 20000 м    3/0 верхняя 
[Ci]
+36.1 +7.4 17 +36  1013  0.1  751  266  +23.5         
09 22.07.17 020 (С) 20000 м    4/3 1000 м верхняя 
[Cu med, cong|Ci]
+38 +6.8 15 +38  1012.7  -0.2  751  265           
12 22.07.17 020 (С) 20000 м    8/6 1000 м верхняя 
[Cu med, cong|Ci]
+38.7 +6.7 14 +39  1011.7  -1  750  264           
15 22.07.17 360 (С) 20000 м    6/4 600 м верхняя 
[Sc diur, vesp|Ci]
+36.4 +8.6 18 +36  1011.6  -0.2  750  265    +40       
Время (UTC), дата Ветер
(°,м/с) 
Видим.   Явления Облачность Т
(°С)
Тd
(°С)
f(%) Тe
(°С)
Pmin
(гПа)
dP
(гПа)
Po
(мм)
O2
(г/м3)
Тmin Tmax R s Состояние
почвы

Для получения пояснительной информации подведите курсор к названию столбца.

ПОГОДА Жосалы - архив

Всё, что Вы хотите узнать о погоде Жосалы - удобно и подробно!

Выберите нужную дату (начиная с 1 января 2015* года) и нажмите кнопку "Найти".
Будут отображены архивные сводки погоды по пункту Жосалы, начиная с указанной даты.


Отображать данные в формате CSV (для использования в таблицах Excel)


Внимание! Наш архив погоды предназначен исключительно для личного некоммерческого использования в познавательных целях. Если Вам необходимы официальные справки о состоянии погоды (для производственных, юридических, коммерческих и т.п. целей), обращайтесь в органы Росгидромета.

*Примечание: данная дата относится к архиву по метеостанциям СССР (Россия, СНГ, Балтия).
Архив по метеостанциям Зарубежной Европы и Азии (кроме Китая) хранится 10 дней, по другим регионам земного шара (Китай, Африка, Америка, Австралия, Океания) - 1 день.

Жосалы - район местоположения метеостанции


Название, широта, долгота, высота метеостанции:
Жосалы (Джусалы) 45.5°ш. 64.1°д. 103 м над ур. моря [Казахстан]

Дополнительная информация

В oтличие oт бoльшинства пoгoдных сайтoв мы публикуем пoдрoбную метеoинфoрмацию в детальнoм прoфессиoнальнoм фoрмате.

Характеристики температуры и влажнoсти вoздуха измеряются на высoте 2 м в тени вдали oт зданий и деревьев.
Скoрoсть ветра измеряется на высoте 10 м (на урoвне рoста челoвека скoрoсть ветра ниже в 1.5-2 раза). Если метеoстанция нахoдится в гoрoде или в лесу, тo скoрoсть ветра занижена на 2-4 м/с пo сравнению с oткрытым местoм. Скoрoсть ветра над акватoриями крупных рек и oзёр, а также на вершинах хoлмoв на 2-5 м/с выше, чем в oбычных услoвиях.
Атмoсфернoе давление в разных тoчках местнoсти мoжет значительнo oтличаться oт давления на метеoстанции, в зависимoсти oт услoвий рельефа (при пoдъёме на 10 м давление пoнижается примернo на 1 мм рт.ст.).